Regional Weather Roundup
Issued by NWS Mt. Holly, NJ

Home | Current Version | Previous Version | Text Only | Print | Product List | Glossary On
Versions: 1 2 3 4 5 6 7 8 9 10 11 12 13 14 15 16 17 18 19 20 21 22 23 24 25 26 27 28 29 30 31 32 33 34 35 36 37 38 39 40 41 42 43 44 45 46 47 48 49 50
000
ASUS41 KPHI 240512
RWRPHI

REGIONAL WEATHER ROUNDUP
NATIONAL WEATHER SERVICE MOUNT HOLLY NJ
1200 AM EST TUE JAN 24 2017

NOTE:  "FAIR" INDICATES FEW OR NO CLOUDS BELOW 12,000 FEET WITH NO
SIGNIFICANT WEATHER AND/OR OBSTRUCTIONS TO VISIBILITY.

 * = STATION DOES NOT REPORT PRECIPITATION (E.G. RAIN, SNOW, ETC.)
        OR FOG.

NJZ015>026-240600-
SOUTHERN NEW JERSEY

CITY           SKY/WX    TMP DP  RH WIND       PRES   REMARKS
POMONA         CLOUDY    41  37  86 NE30G48   29.28F
WILDWOOD*      CLOUDY    43  38  82 NE23G37   29.29S
MILLVILLE      CLOUDY    40  37  89 NE18G36   29.35S WCI  31
WRIGHTSTOWN    LGT RAIN  37  36  93 NE25G31   29.36F WCI  26
MOUNT HOLLY    LGT RAIN  37  35  92 NE16G33   29.37F WCI  28
TRENTON        RAIN      37  35  92 NE17G30   29.41F WCI  27

$$
NJZ001>014-240600-
NORTHERN NEW JERSEY

CITY           SKY/WX    TMP DP  RH WIND       PRES   REMARKS
SUSSEX         FRZ RAIN  33  32  96 NE15G29   29.51F FOG     WCI  23
ANDOVER*         N/A     33  31  92 NE13G21   29.49F WCI  24
MORRISTOWN     MIX PCPN  36  36 100 NE14      29.49F WCI  27
NEWARK         RAIN      38  35  89 NE25G33   29.47F WCI  27
TETERBORO      RAIN      38  35  89 NE12      29.47F FOG     WCI  30
CALDWELL       RAIN      37  33  85 NE17G24   29.49F FOG     WCI  27
SOMERVILLE     RAIN      37  33  85 NE8G20    29.46F FOG     WCI  31
ALLAIRE*       RAIN      38  36  92 NE17G28   29.40F WCI  28
TOMS RIVER*    LGT RAIN  39  37  92 NE23G37   29.38F WCI  28

$$
PAZ043-044-047-054-055-060>062-066>071-240600-
EASTERN PENNSYLVANIA

CITY           SKY/WX    TMP DP  RH WIND       PRES   REMARKS
PHILADELPHIA   LGT RAIN  39  35  86 NE23      29.42R WCI  28
NORTH PHILA    LGT RAIN  39  38  96 NE28G36   29.41F WCI  28
BLUE BELL*     CLOUDY    36  34  93 NE6G18    29.41S WCI  31
DOYLESTOWN     RAIN      37  35  92 NE17G32   29.42F WCI  27
QUAKERTOWN*    CLOUDY    37  34  87 NE14G23   29.44F WCI  29
PERKASIE*      HVY RAIN  36  36 100 NE24G33   29.43F WCI  24
POTTSTOWN      LGT RAIN  37  34  89 NE13G21   29.47F WCI  29
LANCASTER      CLOUDY    37  36  96 N14       29.49F WCI  28
COATESVILLE    CLOUDY    37  34  87 N13       29.45F WCI  29
READING        LGT RAIN  36  35  96 NE10      29.48F WCI  28
ALLENTOWN      LGT RAIN  36  31  82 NE17      29.48F WCI  26
MOUNT POCONO   MIX PCPN  32  29  88 E17G33    29.46F WCI  21
HAZLETON       LGT SNOW  34  32  93 N6        29.51  WCI  29
LEHIGHTON      RAIN      36  34  93 NE6       29.51F WCI  31
WILKES BARRE   RAIN      34  33  96 NE9       29.52F FOG     WCI  27

$$
DEZALL-MDZ008-012-015-019-020-240600-
DELAWARE AND EASTERN MARYLAND

CITY           SKY/WX    TMP DP  RH WIND       PRES   REMARKS
WILMINGTON     CLOUDY    40  35  83 NE16G30   29.43F WCI  31
DOVER          CLOUDY    41  41 100 N18       29.37S
GEORGETOWN     CLOUDY    44  39  82 N13G25    29.34F
EASTON         CLOUDY    41  36  83 NE12G18   29.43S
ABERDEEN       CLOUDY    40  34  81 N12       29.45F WCI  32
PATUXENT         N/A     39  39 100 N21G28    29.40R FOG     WCI  29
OCEAN CITY     CLOUDY    44  42  93 N23G36    29.30S
WALLOPS ISLAND CLOUDY    45  45 100 N14       29.30R FOG
CAMBRIDGE      CLOUDY    39  37  93 N14       29.37S WCI  31
SALISBURY      CLOUDY    44  42  93 N13       29.32R

$$
PAZ001-021-NYZ056-072-MDZ011-DCZ001-240600-
OTHER NEARBY LOCATIONS

CITY           SKY/WX    TMP DP  RH WIND       PRES   REMARKS
HARRISBURG     LGT RAIN  38  35  89 N6        29.52F WCI  33
STATE COLLEGE  LGT SNOW  32  32  99 NE7       29.57S WCI  26
WILLIAMSPORT   FLURRIES  34  32  92 W7        29.58F WCI  28
BINGHAMTON     FRZ RAIN  31  30  96 NE13G20   29.57F FOG     WCI  21
NEW YORK CITY  RAIN      36  35  96 NE16G31   29.48F FOG     WCI  26
BALTIMORE      DRIZZLE   38  36  92 N9        29.45F WCI  31
WASHINGTON DC  CLOUDY    39  38  96 N14G23    29.48S WCI  31

$$



USA.gov is the U.S. government's official web portal to all federal, state and local government web resources and services.